Retour au catalogue

STARLINK-31723

ActifCommunicationsVLEO
NORAD 59553·PAYLOAD·🇺🇸 United States

Lancé Apr 18, 2024 depuis Cape Canaveral Space Force Station

Loading…

Prochains Passages (prochaines 24 heures)

TLE

FraisSource: CelesTrak SupGP

Époque: Sep 15, 2026, 02:53 UTC

1 59553C 24074V   26258.12062500  .00041642  00000+0  15080-2 0  2583
2 59553  43.0032 353.6953 0001531 259.9643 169.7344 15.27564246    10

Suivez STARLINK-31723 en temps réel avec AllMySat

Download on the App Store